timestamp,wind_dir_avg,wind_spd_max_dir,wind_spd_avg,wind_spd_gust,battery_voltage,lat,long
2018-12-03 00:00:00+00:00,278.0,273.0,1.84,2.25,,47.59359,-54.27349
2018-12-03 00:10:00+00:00,230.0,238.0,1.1,1.3,,47.59359,-54.27349
2018-12-03 00:20:00+00:00,211.0,207.0,1.13,1.38,,47.59359,-54.27349
2018-12-03 00:30:00+00:00,225.0,226.0,1.69,1.9,,47.59359,-54.27349
2018-12-03 00:40:00+00:00,206.0,200.0,0.52,0.88,,47.59359,-54.27349
2018-12-03 00:50:00+00:00,201.0,197.0,1.63,1.91,,47.59359,-54.27349
2018-12-03 01:00:00+00:00,174.0,159.0,2.6,3.58,,47.59359,-54.27349
2018-12-03 01:10:00+00:00,179.0,176.0,3.97,4.36,,47.59359,-54.27349
2018-12-03 01:20:00+00:00,188.0,187.0,4.61,5.32,,47.59359,-54.27349
2018-12-03 01:30:00+00:00,236.0,237.0,3.59,3.91,,47.59359,-54.27349
2018-12-03 01:40:00+00:00,256.0,262.0,1.54,1.92,,47.59359,-54.27349
2018-12-03 01:50:00+00:00,179.0,181.0,1.42,1.93,,47.59359,-54.27349
2018-12-03 02:00:00+00:00,202.0,208.0,2.21,2.69,,47.59359,-54.27349
2018-12-03 02:10:00+00:00,220.0,224.0,2.66,3.65,,47.59359,-54.27349
2018-12-03 02:20:00+00:00,199.0,206.0,1.76,2.04,,47.59359,-54.27349
2018-12-03 02:30:00+00:00,197.0,202.0,2.96,3.67,,47.59359,-54.27349
2018-12-03 02:40:00+00:00,203.0,210.0,4.88,5.34,,47.59359,-54.27349
2018-12-03 02:50:00+00:00,262.0,266.0,5.77,6.43,,47.59359,-54.27349
2018-12-03 03:00:00+00:00,224.0,229.0,4.54,5.23,,47.59359,-54.27349
2018-12-03 03:10:00+00:00,229.0,230.0,3.9,4.41,,47.59359,-54.27349
2018-12-03 03:20:00+00:00,228.0,229.0,4.66,5.57,,47.59359,-54.27349
2018-12-03 03:30:00+00:00,213.0,214.0,4.16,4.42,,47.59359,-54.27349
2018-12-03 03:40:00+00:00,218.0,217.0,4.27,4.7,,47.59359,-54.27349
2018-12-03 03:50:00+00:00,216.0,216.0,4.33,4.54,,47.59359,-54.27349
2018-12-03 04:00:00+00:00,221.0,217.0,4.8,5.6,,47.59359,-54.27349
2018-12-03 04:10:00+00:00,237.0,242.0,4.86,6.27,,47.59359,-54.27349
2018-12-03 04:20:00+00:00,221.0,222.0,8.97,10.32,,47.59359,-54.27349
2018-12-03 04:30:00+00:00,209.0,210.0,6.07,6.84,,47.59359,-54.27349
2018-12-03 04:40:00+00:00,194.0,201.0,5.97,6.91,,47.59359,-54.27349
2018-12-03 04:50:00+00:00,201.0,199.0,6.25,6.98,,47.59359,-54.27349
2018-12-03 05:00:00+00:00,204.0,202.0,5.57,6.59,,47.59359,-54.27349
2018-12-03 05:10:00+00:00,215.0,213.0,8.24,9.02,,47.59359,-54.27349
2018-12-03 05:20:00+00:00,217.0,219.0,6.95,8.26,,47.59359,-54.27349
2018-12-03 05:30:00+00:00,220.0,229.0,8.54,10.26,,47.59359,-54.27349
2018-12-03 05:40:00+00:00,233.0,230.0,7.48,8.16,,47.59359,-54.27349
2018-12-03 05:50:00+00:00,228.0,231.0,6.63,7.34,,47.59359,-54.27349
2018-12-03 06:00:00+00:00,203.0,199.0,6.92,7.84,,47.59359,-54.27349
2018-12-03 06:10:00+00:00,205.0,201.0,7.99,9.13,,47.59359,-54.27349
2018-12-03 06:20:00+00:00,216.0,215.0,10.01,11.44,,47.59359,-54.27349
2018-12-03 06:30:00+00:00,214.0,217.0,10.21,11.56,,47.59359,-54.27349
2018-12-03 06:40:00+00:00,218.0,223.0,9.57,10.66,,47.59359,-54.27349
2018-12-03 06:50:00+00:00,215.0,215.0,10.85,12.11,,47.59359,-54.27349
2018-12-03 07:00:00+00:00,208.0,216.0,9.81,11.12,,47.59359,-54.27349
2018-12-03 07:10:00+00:00,208.0,207.0,9.8,11.16,,47.59359,-54.27349
2018-12-03 07:20:00+00:00,208.0,206.0,8.89,10.16,,47.59359,-54.27349
2018-12-03 07:30:00+00:00,225.0,220.0,8.19,8.92,,47.59359,-54.27349
2018-12-03 07:40:00+00:00,210.0,214.0,10.41,11.22,,47.59359,-54.27349
2018-12-03 07:50:00+00:00,214.0,217.0,10.37,11.96,,47.59359,-54.27349
2018-12-03 08:00:00+00:00,216.0,221.0,11.36,14.68,,47.59359,-54.27349
2018-12-03 08:10:00+00:00,219.0,222.0,10.71,11.63,,47.59359,-54.27349
2018-12-03 08:20:00+00:00,219.0,220.0,10.9,11.81,,47.59359,-54.27349
2018-12-03 08:30:00+00:00,206.0,210.0,10.12,11.05,,47.59359,-54.27349
2018-12-03 08:40:00+00:00,204.0,205.0,9.82,10.93,,47.59359,-54.27349
2018-12-03 08:50:00+00:00,201.0,199.0,8.24,9.49,,47.59359,-54.27349
2018-12-03 09:00:00+00:00,206.0,205.0,7.97,9.41,,47.59359,-54.27349
2018-12-03 09:10:00+00:00,198.0,200.0,9.9,10.92,,47.59359,-54.27349
2018-12-03 09:20:00+00:00,211.0,210.0,9.82,11.03,,47.59359,-54.27349
2018-12-03 09:30:00+00:00,212.0,215.0,8.27,10.1,,47.59359,-54.27349
2018-12-03 09:40:00+00:00,206.0,206.0,10.42,12.04,,47.59359,-54.27349
2018-12-03 09:50:00+00:00,198.0,197.0,9.74,10.65,,47.59359,-54.27349
2018-12-03 10:00:00+00:00,198.0,204.0,8.07,9.25,,47.59359,-54.27349
2018-12-03 10:10:00+00:00,193.0,195.0,9.95,11.95,,47.59359,-54.27349
2018-12-03 10:20:00+00:00,198.0,196.0,9.91,11.51,,47.59359,-54.27349
2018-12-03 10:30:00+00:00,193.0,197.0,11.16,12.34,,47.59359,-54.27349
2018-12-03 11:00:00+00:00,189.0,191.0,8.46,9.84,,47.59359,-54.27349
2018-12-03 11:50:00+00:00,183.0,183.0,9.09,10.65,,47.59359,-54.27349
2018-12-03 12:30:00+00:00,180.0,185.0,9.45,10.51,,47.59359,-54.27349
2018-12-03 12:40:00+00:00,180.0,176.0,9.47,10.89,,47.59359,-54.27349
2018-12-03 12:50:00+00:00,179.0,175.0,10.65,12.21,,47.59359,-54.27349
2018-12-03 13:00:00+00:00,178.0,175.0,10.52,12.07,,47.59359,-54.27349
2018-12-03 13:10:00+00:00,173.0,177.0,9.47,10.49,,47.59359,-54.27349
2018-12-03 13:20:00+00:00,175.0,178.0,9.92,11.31,,47.59359,-54.27349
2018-12-03 13:30:00+00:00,172.0,172.0,10.3,11.79,,47.59359,-54.27349
2018-12-03 13:40:00+00:00,172.0,170.0,12.79,14.08,,47.59359,-54.27349
2018-12-03 13:50:00+00:00,171.0,169.0,13.56,15.33,,47.59359,-54.27349
2018-12-03 14:00:00+00:00,177.0,177.0,14.67,17.91,,47.59359,-54.27349
2018-12-03 14:10:00+00:00,171.0,173.0,13.29,15.53,,47.59359,-54.27349
2018-12-03 14:20:00+00:00,175.0,175.0,13.04,15.62,,47.59359,-54.27349
2018-12-03 14:30:00+00:00,184.0,182.0,14.92,16.56,,47.59359,-54.27349
2018-12-03 14:40:00+00:00,178.0,179.0,12.3,13.54,,47.59359,-54.27349
2018-12-03 14:50:00+00:00,176.0,180.0,12.48,13.63,,47.59359,-54.27349
2018-12-03 15:00:00+00:00,177.0,177.0,12.83,14.71,,47.59359,-54.27349
2018-12-03 15:10:00+00:00,179.0,182.0,13.67,16.04,,47.59359,-54.27349
2018-12-03 15:20:00+00:00,179.0,177.0,14.53,16.85,,47.59359,-54.27349
2018-12-03 15:30:00+00:00,179.0,182.0,12.42,14.3,,47.59359,-54.27349
2018-12-03 15:40:00+00:00,177.0,176.0,11.64,14.14,,47.59359,-54.27349
2018-12-03 15:50:00+00:00,185.0,188.0,10.91,12.58,,47.59359,-54.27349
2018-12-03 16:00:00+00:00,188.0,182.0,11.49,13.38,,47.59359,-54.27349
2018-12-03 16:10:00+00:00,184.0,188.0,8.08,9.78,,47.59359,-54.27349
2018-12-03 16:20:00+00:00,182.0,181.0,10.04,12.96,,47.59359,-54.27349
2018-12-03 16:30:00+00:00,181.0,180.0,10.78,12.36,,47.59359,-54.27349
2018-12-03 16:40:00+00:00,182.0,186.0,10.46,13.21,,47.59359,-54.27349
2018-12-03 16:50:00+00:00,183.0,179.0,11.48,13.23,,47.59359,-54.27349
2018-12-03 17:00:00+00:00,186.0,183.0,10.74,11.44,,47.59359,-54.27349
2018-12-03 17:10:00+00:00,183.0,182.0,9.57,11.48,,47.59359,-54.27349
2018-12-03 17:20:00+00:00,179.0,176.0,7.0,8.2,,47.59359,-54.27349
2018-12-03 17:30:00+00:00,199.0,202.0,9.0,10.43,,47.59359,-54.27349
2018-12-03 17:40:00+00:00,200.0,204.0,7.93,10.27,,47.59359,-54.27349
2018-12-03 17:50:00+00:00,187.0,179.0,13.79,16.69,,47.59359,-54.27349
2018-12-03 18:00:00+00:00,191.0,194.0,14.09,17.09,,47.59359,-54.27349
2018-12-03 18:10:00+00:00,196.0,198.0,18.69,23.63,,47.59359,-54.27349
2018-12-03 18:20:00+00:00,194.0,186.0,18.16,21.53,,47.59359,-54.27349
2018-12-03 18:30:00+00:00,193.0,187.0,16.89,19.49,,47.59359,-54.27349
2018-12-03 18:40:00+00:00,197.0,202.0,16.76,20.46,,47.59359,-54.27349
2018-12-03 18:50:00+00:00,203.0,198.0,16.32,18.54,,47.59359,-54.27349
2018-12-03 19:00:00+00:00,206.0,202.0,16.2,19.63,,47.59359,-54.27349
2018-12-03 19:10:00+00:00,207.0,209.0,18.31,21.69,,47.59359,-54.27349
2018-12-03 19:20:00+00:00,212.0,203.0,14.44,17.19,,47.59359,-54.27349
2018-12-03 19:30:00+00:00,215.0,211.0,13.07,15.15,,47.59359,-54.27349
2018-12-03 19:40:00+00:00,219.0,220.0,11.37,14.42,,47.59359,-54.27349
2018-12-03 19:50:00+00:00,221.0,226.0,9.84,11.9,,47.59359,-54.27349
2018-12-03 20:00:00+00:00,230.0,229.0,12.2,13.93,,47.59359,-54.27349
2018-12-03 20:10:00+00:00,232.0,235.0,9.47,10.9,,47.59359,-54.27349
2018-12-03 20:20:00+00:00,227.0,229.0,10.01,11.39,,47.59359,-54.27349
2018-12-03 20:30:00+00:00,222.0,222.0,10.09,11.07,,47.59359,-54.27349
2018-12-03 20:40:00+00:00,228.0,225.0,10.37,11.64,,47.59359,-54.27349
2018-12-03 20:50:00+00:00,228.0,227.0,10.27,11.63,,47.59359,-54.27349
2018-12-03 21:00:00+00:00,229.0,232.0,9.84,11.26,,47.59359,-54.27349
2018-12-03 21:10:00+00:00,231.0,233.0,8.52,9.7,,47.59359,-54.27349
2018-12-03 21:20:00+00:00,241.0,250.0,7.17,8.95,,47.59359,-54.27349
2018-12-03 21:30:00+00:00,244.0,246.0,6.86,7.66,,47.59359,-54.27349
2018-12-03 21:40:00+00:00,240.0,240.0,6.99,7.79,,47.59359,-54.27349
2018-12-03 21:50:00+00:00,252.0,255.0,7.08,8.25,,47.59359,-54.27349
2018-12-03 22:00:00+00:00,253.0,252.0,7.57,8.58,,47.59359,-54.27349
2018-12-03 22:10:00+00:00,253.0,255.0,8.5,9.45,,47.59359,-54.27349
2018-12-03 22:20:00+00:00,254.0,257.0,9.28,10.2,,47.59359,-54.27349
2018-12-03 22:30:00+00:00,258.0,259.0,9.78,10.35,,47.59359,-54.27349
2018-12-03 22:40:00+00:00,260.0,262.0,8.96,9.56,,47.59359,-54.27349
2018-12-03 22:50:00+00:00,239.0,237.0,10.19,10.98,,47.59359,-54.27349
2018-12-03 23:00:00+00:00,256.0,250.0,11.66,13.37,,47.59359,-54.27349
2018-12-03 23:10:00+00:00,267.0,266.0,10.73,11.42,,47.59359,-54.27349
2018-12-03 23:20:00+00:00,260.0,260.0,11.83,13.08,,47.59359,-54.27349
2018-12-03 23:30:00+00:00,263.0,263.0,11.72,12.37,,47.59359,-54.27349
2018-12-03 23:40:00+00:00,265.0,264.0,8.66,11.1,,47.59359,-54.27349
2018-12-03 23:50:00+00:00,270.0,273.0,6.91,7.69,,47.59359,-54.27349
